Location: Unspecified
(54.1780°N, 0.0000°E)
Time: 11:41:30
(UTC+00:00)

Vanguard 1 - All Passes

Search period start: 20 June 2019 00:00
Search period end: 30 June 2019 00:00
Orbit: 654 x 3829 km, 34.2° (Epoch: 19 June)

Date Brightness Start Highest point End Pass type
(mag) Time Alt. Az. Time Alt. Az. Time Alt. Az.
20 Jun - 02:52:56 10° SSW 03:02:42 20° SSE 03:09:41 10° SE daylight
20 Jun - 05:14:24 10° SW 05:22:56 22° S 05:28:46 10° SE daylight
20 Jun - 07:39:03 10° SW 07:41:49 12° SSW 07:44:13 10° S daylight
21 Jun - 00:56:01 10° S 01:02:29 13° SSE 01:07:57 10° SE visible
21 Jun - 03:12:33 10° SSW 03:23:27 23° S 03:30:55 10° SE daylight
21 Jun - 05:35:08 10° SW 05:43:33 22° SSW 05:49:17 10° SE daylight
22 Jun - 01:13:17 10° S 01:23:12 17° SSE 01:30:51 10° ESE visible
22 Jun - 03:32:35 10° SW 03:44:12 25° S 03:51:53 10° SE daylight
22 Jun - 05:56:04 10° WSW 06:04:04 21° SSW 06:09:38 10° SSE daylight
23 Jun - 01:31:52 10° SSW 01:43:56 21° SSE 01:52:42 10° ESE visible
23 Jun - 03:52:56 10° SW 04:04:55 27° S 04:12:40 10° SE daylight
23 Jun - 06:17:12 10° WSW 06:24:32 19° SSW 06:29:45 10° SSE daylight
23 Jun - 23:36:51 10° SSE 23:43:20 12° SE 23:49:02 10° ESE visible
24 Jun - 01:51:10 10° SSW 02:04:41 25° SSE 02:14:04 10° ESE visible
24 Jun - 04:13:32 10° SW 04:25:35 28° S 04:33:18 10° SE daylight
24 Jun - 06:38:37 10° WSW 06:44:54 17° SSW 06:49:36 10° S daylight
24 Jun - 23:53:06 10° S 00:03:56 17° SSE 00:12:43 10° ESE visible
25 Jun - 02:10:57 10° SW 02:25:26 28° S 02:35:09 10° ESE visible
25 Jun - 04:34:20 10° WSW 04:46:12 27° SSW 04:53:49 10° SE daylight
25 Jun - 07:00:29 10° WSW 07:05:10 14° SW 07:08:56 10° S daylight
26 Jun - 00:11:07 10° S 00:24:36 21° SSE 00:34:56 10° ESE visible
26 Jun - 02:31:06 10° SW 02:46:11 30° S 02:56:03 10° ESE visible
26 Jun - 04:55:19 10° WSW 05:06:44 26° SSW 05:14:10 10° SSE daylight
26 Jun - 07:23:52 10° SW 07:25:19 10° SW 07:26:41 10° SW daylight
26 Jun - 22:20:22 10° SE 22:23:52 11° SE 22:27:11 10° SE visible
27 Jun - 00:30:02 10° SSW 00:45:16 25° SSE 00:56:32 10° ESE visible
27 Jun - 02:51:33 10° SW 03:06:56 32° S 03:16:49 10° ESE daylight
27 Jun - 05:16:29 10° WSW 05:27:12 24° SSW 05:34:20 10° SSE daylight
27 Jun - 22:34:01 10° SSE 22:44:18 15° SE 22:53:16 10° ESE visible
28 Jun - 00:49:29 10° SSW 01:06:00 29° SSE 01:17:47 10° ESE visible
28 Jun - 03:12:12 10° WSW 03:27:38 33° S 03:37:26 10° SE daylight
28 Jun - 05:37:50 10° WSW 05:47:34 21° SSW 05:54:16 10° SSE daylight
28 Jun - 22:51:13 10° S 23:04:47 20° SE 23:16:08 10° ESE visible
29 Jun - 01:09:23 10° SW 01:26:45 32° SSE 01:38:50 10° ESE visible
29 Jun - 03:33:03 10° WSW 03:48:16 32° SSW 03:57:56 10° SE daylight
29 Jun - 05:59:29 10° WSW 06:07:49 18° SW 06:13:52 10° S daylight
29 Jun - 23:09:35 10° SSW 23:25:21 24° SSE 23:38:06 10° ESE visible
